Evergreen, AL

7:40 AM CST on December 16, 2019 (GMT -0600)
Middleton

Weather History for KGZH - November, 2019

Change the Weather History Date:

Monday, November 18, 2019

  Actual Average (WUND) Record (WUND)
Temperature  
Mean Temperature 52 °F -  
Max Temperature 66 °F - - (-1)
Min Temperature 37 °F - - (-1)
Degree Days  
Heating Degree Days 14    
Growing Degree Days 2 (Base 50)    
Moisture  
Dew Point 38 °F    
Average Humidity 71    
Maximum Humidity 86    
Minimum Humidity 33    
Precipitation  
Precipitation 0.00 in - - ()
Sea Level Pressure  
Sea Level Pressure 29.90 in    
Wind  
Wind Speed 1 mph (NW)    
Max Wind Speed 9 mph    
Max Gust Speed -    
Visibility 8 miles    
Events      
Averages and records for this station are not official NWS values.
T = Trace of Precipitation, MM = Missing Value Source: NWS Daily Summary

Daily Weather History Graph

Daily Weather History Graph

Search for Another Location

Airport or City:

Astronomy

Nov. 18, 2019 Rise Set
Actual Time 6:18 AM CST 4:48 PM CST
Civil Twilight 5:52 AM CST 5:13 PM CST
Nautical Twilight 5:22 AM CST 5:43 PM CST
Astronomical Twilight 4:53 AM CST 6:12 PM CST
Moon 10:33 PM CST (11/18) 11:47 AM CST (11/18)
Length of Visible Light 11h 21m
Length of Day
10h 29m
Waning Gibbous, 63% of the Moon is Illuminated
Nov 18
Waning Gibbous
Nov 19
Last Quarter
Nov 26
New
Dec 4
First Quarter
Dec 11
Full

Hourly Weather History & Observations

Time (CST) Temp. Dew Point Humidity Pressure Visibility Wind Dir Wind Speed Gust Speed Precip Events Conditions
12:13 AM 44.1 °F 39.0 °F 82% 29.92 in 6.0 mi Calm Calm - N/A   Haze
12:53 AM 43.0 °F 37.9 °F 82% 29.92 in 7.0 mi Calm Calm - N/A   Clear
1:53 AM 41.0 °F 37.0 °F 86% 29.91 in 5.0 mi Calm Calm - N/A   Clear
1:59 AM 41.0 °F 36.0 °F 82% 29.92 in 1.8 mi Calm Calm - N/A   Haze
2:12 AM 41.0 °F 36.0 °F 82% 29.91 in 3.0 mi Calm Calm - N/A   Haze
2:53 AM 39.9 °F 36.0 °F 86% 29.90 in 7.0 mi Calm Calm - N/A   Clear
3:53 AM 37.9 °F 34.0 °F 86% 29.91 in 7.0 mi Calm Calm - N/A   Clear
4:53 AM 37.9 °F 34.0 °F 86% 29.91 in 7.0 mi Calm Calm - N/A   Clear
5:53 AM 37.9 °F 34.0 °F 86% 29.92 in 9.0 mi Calm Calm - N/A   Clear
6:03 AM 37.9 °F 33.1 °F 83% 29.92 in 2.0 mi Calm Calm - N/A   Haze
6:11 AM 37.0 °F 33.1 °F 86% 29.92 in 5.0 mi Calm Calm - N/A   Clear
6:53 AM 37.9 °F 34.0 °F 86% 29.93 in 7.0 mi Calm Calm - N/A   Clear
7:53 AM 46.0 °F 41.0 °F 83% 29.92 in 10.0 mi Calm Calm - N/A   Clear
8:53 AM 55.0 °F 41.0 °F 59% 29.93 in 10.0 mi NW 4.6 mph - N/A   Clear
9:53 AM 59.0 °F 37.9 °F 46% 29.94 in 10.0 mi Variable 4.6 mph - N/A   Clear
10:53 AM 62.1 °F 36.0 °F 38% 29.91 in 10.0 mi Variable 5.8 mph - N/A   Clear
11:53 AM 64.9 °F 37.9 °F 37% 29.88 in 10.0 mi NW 5.8 mph - N/A   Clear
12:53 PM 64.9 °F 36.0 °F 34% 29.85 in 10.0 mi West 9.2 mph - N/A   Clear
1:53 PM 66.0 °F 36.0 °F 33% 29.84 in 10.0 mi Variable 3.5 mph - N/A   Clear
2:53 PM 64.0 °F 37.0 °F 37% 29.83 in 10.0 mi NNW 5.8 mph - N/A   Clear
3:53 PM 62.1 °F 39.9 °F 44% 29.84 in 10.0 mi Calm Calm - N/A   Clear
4:53 PM 57.0 °F 45.0 °F 64% 29.85 in 10.0 mi Calm Calm - N/A   Clear
5:53 PM 53.1 °F 45.0 °F 74% 29.86 in 10.0 mi Calm Calm - N/A   Clear
6:53 PM 48.9 °F 43.0 °F 80% 29.87 in 10.0 mi Calm Calm - N/A   Clear
7:53 PM 46.0 °F 41.0 °F 83% 29.88 in 10.0 mi Calm Calm - N/A   Clear
8:53 PM 45.0 °F 41.0 °F 86% 29.90 in 10.0 mi Calm Calm - N/A   Clear
9:53 PM 43.0 °F 39.0 °F 86% 29.90 in 9.0 mi Calm Calm - N/A   Clear
10:53 PM 42.1 °F 37.0 °F 82% 29.91 in 6.0 mi Calm Calm - N/A   Haze
11:53 PM 41.0 °F 36.0 °F 82% 29.91 in 8.0 mi Calm Calm - N/A   Clear